Voltar ao catálogo

STARLINK-33708

AtivoComunicaçõesVLEO
NORAD 63405·PAYLOAD·🇺🇸 United States

Lançado Mar 31, 2025 de Cape Canaveral Space Force Station

Loading…

Próximas Passagens (próximas 24 horas)

TLE

AtualizadoSource: CelesTrak SupGP

Época: Sep 15, 2026, 03:31 UTC

1 63405C 25065G   26258.14701389  .00041885  00000+0  15169-2 0  2589
2 63405  43.0020 117.0304 0001484 278.9068 169.2821 15.27560647    15

Acompanhe STARLINK-33708 em tempo real com AllMySat

Download on the App Store